Tracking 21076 objects as of 10-Aug-2020
HD Live streaming from Space Station
objects crossing your sky now
Track the most recent launched group of Starlink satellites

COSMOS 249 DEB

Track COSMOS 249 DEB now!
10-day predictions


NORAD ID: 19362
Int'l Code: 1968-091DJ
Perigee: 483.8 km
Apogee: 1,335.7 km
Inclination: 62.8 °
Period: 103.0 minutes
Semi major axis: 7280 km
RCS: 0.01 m2 (small)
Launch date: October 20, 1968
Source: Commonwealth of Independent States (former USSR) (CIS)
Launch site: TYURATAM MISSILE AND SPACE COMPLEX (TTMTR)

Note: This is SATELLITE DEBRIS
aabbcc
Your satellite tracking list
Your tracking list is empty




NASA's NSSDC Master Catalog

Two Line Element Set (TLE):
1 19362U 68091DJ  20222.15160006 +.00000944 +00000-0 +17573-3 0  9995
2 19362 062.7790 108.0944 0585067 104.7420 261.9188 13.97459580619146
Source of the keplerian elements: AFSPC